Portada
METAR-TAF:

METAR-TAF

Aeroports :

Zabol, Iran

latitud: 31-20N, longitud: 061-29E, altitud: 489 m

Observació

L'informe es va fer fa 23 minuts, a les 11:00 UTC
Vent 31 kt del Nord/Nord-Oest amb ràfegues de 41 kt
Temperatura 15°C
Humitat 41%
Pressió 1015 hPa
Visibilitat: 1200 m
sorra

METAR: OIZB 271100Z 34031G41KT 1200 SA NSC 15/02 Q1015

Hora: 14:53 (11:23 UTC)


TAF: manca

Observacions i pronòstics meteorològics de més de 4000 aeroports (METAR i TAF).

Les estacions disponibles són els punts grocs i vermells al mapa.

Posi el ratolí al punt desitjat per veure el nom de l'estació.

Feu clic per veure les observacions i els pronòstics meteorològics.

Per canviar el mapa: feu clic els botons verds amb una creu de color negre per apropar; al botó verd amb un guió per allunyar la imatge; o en les fletxes verdes per a mapes adjacents.


METAR-TAF: